When you browse on this site, cookies collect data to enhance your experience and personalize the content and advertising you see.
Visit our Privacy Policy to learn more. By continuing to use the site, you agree to this use of cookies and data.
  • In Germany
  • List of Countries
  • For 7 days
  • Water Temperature
  • Weather Map
  • Weather Widgets
  • user-avatar
    Login

    Hourly Weather Oksford

    Today, 19 November, Tuesday

    Time Temperature Precipitation Wind Pressure Humidity
    00:00 +2°C° 0 mm 0 mps 757 mmHg 93%
    01:00 +3°C° 0 mm 1 mps 757 mmHg 93%
    02:00 +3°C° 0 mm 1 mps 756 mmHg 93%
    03:00 +2°C° 0 mm 1 mps 756 mmHg 93%
    04:00 +2°C° 0 mm 1 mps 756 mmHg 93%
    05:00 +2°C° 0 mm 1 mps 756 mmHg 93%
    06:00 +2°C° 0 mm 1 mps 756 mmHg 92%
    07:00 +3°C° 0 mm 1 mps 756 mmHg 91%
    08:00 +3°C° 0 mm 1 mps 756 mmHg 91%
    09:00 +3°C° 0 mm 2 mps 756 mmHg 90%
    10:00 +4°C° 0 mm 2 mps 756 mmHg 88%
    11:00 +5°C° 0 mm 2 mps 756 mmHg 86%
    12:00 +6°C° 0 mm 2 mps 756 mmHg 84%
    13:00 +5°C° 0 mm 3 mps 756 mmHg 86%
    14:00 +5°C° 0 mm 3 mps 756 mmHg 87%
    15:00 +5°C° 0 mm 3 mps 755 mmHg 88%
    16:00 +5°C° 0 mm 3 mps 755 mmHg 90%
    17:00 +4°C° 0 mm 3 mps 755 mmHg 92%
    18:00 +4°C° 0 mm 3 mps 755 mmHg 94%
    19:00 +4°C° 0 mm 3 mps 755 mmHg 94%
    20:00 +4°C° 0 mm 3 mps 755 mmHg 94%
    21:00 +3°C° 0 mm 3 mps 755 mmHg 93%
    22:00 +3°C° 0 mm 3 mps 755 mmHg 94%
    23:00 +3°C° 0 mm 3 mps 755 mmHg 94%

    Tomorrow, 20 November, Wednesday

    Time Temperature Precipitation Wind Pressure Humidity
    00:00 +4°C° 0 mm 3 mps 755 mmHg 94%
    01:00 +4°C° 0 mm 3 mps 755 mmHg 94%
    02:00 +5°C° 0 mm 4 mps 754 mmHg 93%
    03:00 +5°C° 0 mm 4 mps 754 mmHg 93%
    04:00 +5°C° 0 mm 4 mps 754 mmHg 93%
    05:00 +4°C° 0 mm 4 mps 754 mmHg 93%
    06:00 +4°C° 0 mm 4 mps 754 mmHg 93%
    07:00 +3°C° 0 mm 5 mps 754 mmHg 90%
    08:00 +3°C° 0 mm 5 mps 754 mmHg 88%
    09:00 +3°C° 0 mm 6 mps 754 mmHg 86%
    10:00 +4°C° 0 mm 6 mps 753 mmHg 83%
    11:00 +4°C° 0 mm 6 mps 753 mmHg 81%
    12:00 +5°C° 0 mm 6 mps 753 mmHg 78%
    13:00 +4°C° 0 mm 6 mps 752 mmHg 78%
    14:00 +5°C° 0 mm 5 mps 752 mmHg 78%
    15:00 +5°C° 0 mm 5 mps 752 mmHg 78%
    16:00 +3°C° 0 mm 5 mps 751 mmHg 80%
    17:00 +2°C° 0 mm 5 mps 751 mmHg 82%
    18:00 +1°C° 0 mm 4 mps 751 mmHg 83%
    19:00 +1°C° 0 mm 5 mps 751 mmHg 85%
    20:00 +1°C° 0 mm 5 mps 750 mmHg 86%
    21:00 +1°C° 0 mm 5 mps 750 mmHg 87%
    22:00 +1°C° 0 mm 5 mps 750 mmHg 89%
    23:00 +1°C° 0 mm 5 mps 750 mmHg 91%

    Day after tomorrow, 21 November, Thursday

    Time Temperature Precipitation Wind Pressure Humidity
    00:00 +1°C° 0 mm 5 mps 749 mmHg 92%
    01:00 +1°C° 0 mm 4 mps 749 mmHg 93%
    02:00 +1°C° 0 mm 4 mps 748 mmHg 94%
    03:00 +1°C° 0 mm 4 mps 748 mmHg 94%
    04:00 +1°C° 0 mm 4 mps 748 mmHg 94%
    05:00 +1°C° 0 mm 5 mps 748 mmHg 94%
    06:00 +1°C° 0 mm 5 mps 747 mmHg 94%
    07:00 +2°C° 0 mm 5 mps 747 mmHg 94%
    08:00 +2°C° 0 mm 5 mps 747 mmHg 94%
    09:00 +2°C° 0 mm 6 mps 747 mmHg 94%
    10:00 +3°C° 0 mm 6 mps 746 mmHg 92%
    11:00 +4°C° 0 mm 6 mps 746 mmHg 89%
    12:00 +5°C° 0 mm 6 mps 746 mmHg 87%
    13:00 +5°C° 0.5 mm 6 mps 745 mmHg 90%
    14:00 +5°C° 0.5 mm 6 mps 744 mmHg 92%
    15:00 +5°C° 0.5 mm 6 mps 744 mmHg 94%
    16:00 +5°C° 0.6 mm 6 mps 744 mmHg 94%
    17:00 +6°C° 0.6 mm 5 mps 744 mmHg 95%
    18:00 +7°C° 0.6 mm 5 mps 744 mmHg 95%
    19:00 +6°C° 0.1 mm 4 mps 743 mmHg 94%
    20:00 +6°C° 0.1 mm 4 mps 743 mmHg 94%
    21:00 +6°C° 0.1 mm 4 mps 743 mmHg 93%
    22:00 +6°C° 0.2 mm 4 mps 743 mmHg 92%
    23:00 +6°C° 0.2 mm 4 mps 743 mmHg 92%

    22 November, Friday

    Time Temperature Precipitation Wind Pressure Humidity
    00:00 +5°C° 0.2 mm 4 mps 743 mmHg 91%
    01:00 +5°C° 0.2 mm 5 mps 743 mmHg 90%
    02:00 +5°C° 0.2 mm 5 mps 743 mmHg 90%
    03:00 +5°C° 0.2 mm 5 mps 743 mmHg 90%
    04:00 +5°C° 0.2 mm 5 mps 743 mmHg 90%
    05:00 +5°C° 0.2 mm 5 mps 743 mmHg 89%
    06:00 +5°C° 0.2 mm 5 mps 743 mmHg 89%
    07:00 +6°C° 0.1 mm 4 mps 743 mmHg 90%
    08:00 +6°C° 0.1 mm 4 mps 744 mmHg 91%
    09:00 +6°C° 0.1 mm 4 mps 744 mmHg 91%
    10:00 +6°C° 0.3 mm 4 mps 743 mmHg 91%
    11:00 +7°C° 0.3 mm 5 mps 743 mmHg 91%
    12:00 +7°C° 0.3 mm 5 mps 743 mmHg 91%
    13:00 +7°C° 0 mm 5 mps 743 mmHg 89%
    14:00 +7°C° 0 mm 5 mps 742 mmHg 87%
    15:00 +8°C° 0 mm 5 mps 742 mmHg 85%
    16:00 +7°C° 0 mm 5 mps 742 mmHg 86%
    17:00 +7°C° 0 mm 5 mps 742 mmHg 86%
    18:00 +6°C° 0 mm 5 mps 742 mmHg 87%
    19:00 +6°C° 0 mm 5 mps 742 mmHg 88%
    20:00 +6°C° 0 mm 5 mps 742 mmHg 90%
    21:00 +6°C° 0 mm 5 mps 741 mmHg 91%
    22:00 +6°C° 0 mm 5 mps 741 mmHg 90%
    23:00 +6°C° 0 mm 5 mps 741 mmHg 89%

    23 November, Saturday

    Time Temperature Precipitation Wind Pressure Humidity
    00:00 +7°C° 0 mm 6 mps 740 mmHg 88%
    01:00 +7°C° 0.1 mm 6 mps 740 mmHg 88%
    02:00 +7°C° 0.1 mm 6 mps 740 mmHg 88%
    03:00 +7°C° 0.1 mm 6 mps 739 mmHg 89%
    04:00 +7°C° 0.7 mm 6 mps 739 mmHg 89%
    05:00 +7°C° 0.7 mm 6 mps 739 mmHg 90%
    06:00 +7°C° 0.7 mm 6 mps 739 mmHg 91%
    07:00 +7°C° 0.2 mm 6 mps 740 mmHg 91%
    08:00 +8°C° 0.2 mm 6 mps 740 mmHg 92%
    09:00 +8°C° 0.2 mm 5 mps 740 mmHg 92%
    10:00 +8°C° 0 mm 5 mps 741 mmHg 90%
    11:00 +9°C° 0 mm 5 mps 741 mmHg 89%
    12:00 +9°C° 0 mm 5 mps 742 mmHg 87%
    13:00 +9°C° 0 mm 5 mps 742 mmHg 87%
    14:00 +10°C° 0 mm 4 mps 742 mmHg 87%
    15:00 +10°C° 0 mm 4 mps 742 mmHg 87%
    16:00 +8°C° 0 mm 4 mps 743 mmHg 88%
    17:00 +9°C° 0 mm 3 mps 744 mmHg 88%
    18:00 +8°C° 0 mm 3 mps 744 mmHg 89%
    19:00 +8°C° 0 mm 3 mps 745 mmHg 90%
    20:00 +7°C° 0 mm 3 mps 745 mmHg 90%
    21:00 +7°C° 0 mm 2 mps 746 mmHg 91%
    22:00 +7°C° 0 mm 2 mps 746 mmHg 92%
    23:00 +7°C° 0 mm 2 mps 746 mmHg 93%

    24 November, Sunday

    Time Temperature Precipitation Wind Pressure Humidity
    00:00 +7°C° 0 mm 2 mps 747 mmHg 94%
    01:00 +7°C° 0.2 mm 2 mps 747 mmHg 94%
    02:00 +7°C° 0.2 mm 2 mps 747 mmHg 95%
    03:00 +7°C° 0.2 mm 2 mps 747 mmHg 96%
    04:00 +8°C° 0.1 mm 1 mps 748 mmHg 96%
    05:00 +8°C° 0.1 mm 1 mps 748 mmHg 96%
    06:00 +8°C° 0.1 mm 1 mps 748 mmHg 96%
    07:00 +8°C° 0 mm 1 mps 748 mmHg 96%
    08:00 +8°C° 0 mm 1 mps 749 mmHg 96%
    09:00 +8°C° 0 mm 1 mps 749 mmHg 96%
    10:00 +8°C° 0 mm 2 mps 749 mmHg 94%
    11:00 +9°C° 0 mm 2 mps 749 mmHg 92%
    12:00 +9°C° 0 mm 3 mps 749 mmHg 90%
    13:00 +9°C° 0 mm 3 mps 749 mmHg 89%
    14:00 +9°C° 0 mm 3 mps 749 mmHg 88%
    15:00 +9°C° 0 mm 3 mps 749 mmHg 86%
    16:00 +8°C° 0.1 mm 4 mps 748 mmHg 88%
    17:00 +8°C° 0.1 mm 5 mps 748 mmHg 90%
    18:00 +8°C° 0.1 mm 6 mps 747 mmHg 91%
    19:00 +8°C° 0.9 mm 7 mps 747 mmHg 92%
    20:00 +9°C° 0.9 mm 8 mps 746 mmHg 92%
    21:00 +8°C° 0.9 mm 9 mps 746 mmHg 92%
    22:00 +8°C° 1.4 mm 9 mps 745 mmHg 93%
    23:00 +10°C° 1.4 mm 8 mps 745 mmHg 93%
    Show more